| time (UTC) | temp F | wind direction | speed MPH | gust MPH | rain 1hr in | rain 24hr in | rain mn in | humidity % | barometer mb |
| 20260510175022 | 64 | 338 | 9.0 | 13.0 | 0.00 | 0.00 | 0.00 | 36 | 1022.4 |
| 20260510174022 | 64 | 338 | 8.0 | 13.0 | 0.00 | 0.00 | 0.00 | 36 | 1022.6 |
| 20260510173022 | 64 | 338 | 6.0 | 11.0 | 0.00 | 0.00 | 0.00 | 36 | 1022.5 |
| 20260510172022 | 63 | 0 | 7.0 | 11.0 | 0.00 | 0.00 | 0.00 | 36 | 1022.3 |
| 20260510171022 | 62 | 0 | 7.0 | 12.0 | 0.00 | 0.00 | 0.00 | 38 | 1022.3 |
| 20260510170022 | 61 | 338 | 6.0 | 10.0 | 0.00 | 0.00 | 0.00 | 41 | 1022.3 |
| 20260510165022 | 60 | 338 | 7.0 | 10.0 | 0.00 | 0.00 | 0.00 | 42 | 1022.2 |
| 20260510164022 | 59 | 338 | 6.0 | 9.0 | 0.00 | 0.00 | 0.00 | 45 | 1022.4 |
| 20260510163021 | 58 | 338 | 5.0 | 8.0 | 0.00 | 0.00 | 0.00 | 47 | 1022.2 |
| 20260510162021 | 57 | 338 | 4.0 | 7.0 | 0.00 | 0.00 | 0.00 | 50 | 1022.1 |
| 20260510161022 | 56 | 338 | 3.0 | 6.0 | 0.00 | 0.00 | 0.00 | 53 | 1021.9 |
| 20260510160021 | 56 | 315 | 5.0 | 9.0 | 0.00 | 0.00 | 0.00 | 52 | 1022.0 |
| 20260510155023 | 57 | 338 | 6.0 | 11.0 | 0.00 | 0.00 | 0.00 | 50 | 1021.9 |
| 20260510154021 | 58 | 338 | 7.0 | 11.0 | 0.00 | 0.00 | 0.00 | 46 | 1021.9 |
| 20260510153021 | 58 | 0 | 8.0 | 13.0 | 0.00 | 0.00 | 0.00 | 44 | 1021.5 |
| 20260510152021 | 58 | 338 | 8.0 | 13.0 | 0.00 | 0.00 | 0.00 | 45 | 1021.9 |
| 20260510151021 | 57 | 338 | 6.0 | 10.0 | 0.00 | 0.00 | 0.00 | 45 | 1022.2 |
| 20260510150022 | 58 | 338 | 5.0 | 7.0 | 0.00 | 0.00 | 0.00 | 47 | 1022.5 |
| 20260510145021 | 58 | 338 | 4.0 | 7.0 | 0.00 | 0.00 | 0.00 | 46 | 1022.5 |
| 20260510144021 | 57 | 338 | 4.0 | 7.0 | 0.00 | 0.00 | 0.00 | 44 | 1022.6 |
| 20260510143034 | 57 | 0 | 3.0 | 6.0 | 0.00 | 0.00 | 0.00 | 47 | 1022.4 |
| 20260510142021 | 57 | 0 | 3.0 | 7.0 | 0.00 | 0.00 | 0.00 | 48 | 1022.1 |
| 20260510141021 | 57 | 0 | 2.0 | 5.0 | 0.00 | 0.00 | 0.00 | 51 | 1021.8 |
| 20260510140021 | 57 | 0 | 2.0 | 4.0 | 0.00 | 0.00 | 0.00 | 52 | 1021.7 |
| 20260510135021 | 56 | 0 | 3.0 | 6.0 | 0.00 | 0.00 | 0.00 | 52 | 1021.7 |
| 20260510134022 | 56 | 0 | 3.0 | 7.0 | 0.00 | 0.00 | 0.00 | 53 | 1021.5 |
| 20260510133021 | 56 | 0 | 5.0 | 9.0 | 0.00 | 0.00 | 0.00 | 53 | 1021.4 |
| 20260510132021 | 56 | 0 | 6.0 | 12.0 | 0.00 | 0.00 | 0.00 | 53 | 1021.3 |
| 20260510131021 | 56 | 0 | 7.0 | 12.0 | 0.00 | 0.00 | 0.00 | 54 | 1020.9 |
| 20260510130021 | 56 | 338 | 6.0 | 11.0 | 0.00 | 0.00 | 0.00 | 55 | 1020.8 |
| 20260510125022 | 56 | 338 | 6.0 | 11.0 | 0.00 | 0.00 | 0.00 | 56 | 1020.6 |
| 20260510124021 | 56 | 338 | 8.0 | 14.0 | 0.00 | 0.00 | 0.00 | 57 | 1020.2 |
| 20260510123021 | 56 | 338 | 7.0 | 12.0 | 0.00 | 0.00 | 0.00 | 58 | 1019.9 |
| 20260510122021 | 56 | 338 | 4.0 | 8.0 | 0.00 | 0.00 | 0.00 | 61 | 1019.8 |
| 20260510121021 | 57 | 338 | 6.0 | 11.0 | 0.00 | 0.00 | 0.00 | 62 | 1019.4 |
| 20260510120021 | 57 | 338 | 5.0 | 12.0 | 0.00 | 0.00 | 0.00 | 63 | 1019.3 |
| 20260510115021 | 57 | 338 | 8.0 | 13.0 | 0.00 | 0.00 | 0.00 | 64 | 1018.7 |
| 20260510114021 | 57 | 315 | 7.0 | 12.0 | 0.00 | 0.00 | 0.00 | 64 | 1018.6 |
| 20260510113021 | 58 | 0 | 7.0 | 13.0 | 0.00 | 0.00 | 0.00 | 61 | 1017.8 |
| 20260510112021 | 58 | 338 | 8.0 | 11.0 | 0.00 | 0.00 | 0.00 | 63 | 1018.0 |
| 20260510111021 | 58 | 338 | 8.0 | 14.0 | 0.00 | 0.00 | 0.00 | 64 | 1017.7 |
| 20260510110021 | 58 | 338 | 9.0 | 13.0 | 0.00 | 0.00 | 0.00 | 65 | 1017.6 |
| 20260510105021 | 57 | 338 | 8.0 | 13.0 | 0.00 | 0.00 | 0.00 | 66 | 1017.5 |
| 20260510104021 | 57 | 315 | 8.0 | 16.0 | 0.00 | 0.00 | 0.00 | 68 | 1017.8 |
| 20260510103021 | 57 | 315 | 7.0 | 12.0 | 0.00 | 0.00 | 0.00 | 69 | 1017.7 |
| 20260510102021 | 57 | 315 | 7.0 | 12.0 | 0.00 | 0.00 | 0.00 | 69 | 1017.6 |
| 20260510101021 | 57 | 315 | 8.0 | 15.0 | 0.00 | 0.00 | 0.00 | 69 | 1017.6 |
| 20260510100021 | 57 | 315 | 8.0 | 12.0 | 0.00 | 0.00 | 0.00 | 67 | 1017.4 |
| 20260510095021 | 57 | 315 | 7.0 | 12.0 | 0.00 | 0.00 | 0.00 | 67 | 1017.3 |
| 20260510094021 | 58 | 315 | 5.0 | 10.0 | 0.00 | 0.00 | 0.00 | 66 | 1017.5 |
| 20260510093021 | 58 | 315 | 7.0 | 12.0 | 0.00 | 0.00 | 0.00 | 66 | 1017.3 |
| 20260510092021 | 58 | 315 | 8.0 | 13.0 | 0.00 | 0.00 | 0.00 | 66 | 1017.1 |
| 20260510091021 | 58 | 338 | 8.0 | 13.0 | 0.00 | 0.00 | 0.00 | 66 | 1016.8 |
| 20260510090021 | 59 | 338 | 6.0 | 13.0 | 0.00 | 0.00 | 0.00 | 65 | 1016.9 |
| 20260510085021 | 59 | 315 | 7.0 | 12.0 | 0.00 | 0.00 | 0.00 | 65 | 1016.8 |
| 20260510084021 | 59 | 315 | 7.0 | 14.0 | 0.00 | 0.00 | 0.00 | 64 | 1016.6 |
| 20260510083021 | 59 | 315 | 7.0 | 12.0 | 0.00 | 0.00 | 0.00 | 64 | 1016.4 |
| 20260510082021 | 59 | 315 | 6.0 | 10.0 | 0.00 | 0.00 | 0.00 | 64 | 1016.4 |
| 20260510081021 | 59 | 315 | 6.0 | 12.0 | 0.00 | 0.00 | 0.00 | 64 | 1016.5 |
| 20260510080021 | 59 | 315 | 7.0 | 11.0 | 0.00 | 0.00 | 0.00 | 65 | 1016.4 |
| 20260510075021 | 59 | 315 | 6.0 | 11.0 | 0.00 | 0.00 | 0.00 | 65 | 1016.3 |
| 20260510074033 | 60 | 338 | 7.0 | 11.0 | 0.00 | 0.00 | 0.00 | 65 | 1016.2 |
| 20260510073021 | 60 | 315 | 5.0 | 8.0 | 0.00 | 0.00 | 0.00 | 64 | 1016.3 |
| 20260510072021 | 61 | 338 | 6.0 | 10.0 | 0.00 | 0.00 | 0.00 | 64 | 1016.2 |
| 20260510071021 | 61 | 315 | 5.0 | 7.0 | 0.00 | 0.00 | 0.00 | 63 | 1016.0 |
| 20260510070021 | 61 | 338 | 5.0 | 9.0 | 0.00 | 0.00 | 0.00 | 61 | 1015.8 |
| 20260510065021 | 62 | 338 | 6.0 | 11.0 | 0.00 | 0.00 | 0.00 | 61 | 1015.6 |
| 20260510064021 | 62 | 338 | 6.0 | 10.0 | 0.00 | 0.00 | 0.00 | 59 | 1015.5 |
| 20260510063021 | 62 | 338 | 6.0 | 11.0 | 0.00 | 0.00 | 0.00 | 59 | 1015.3 |
| 20260510062021 | 63 | 338 | 5.0 | 10.0 | 0.00 | 0.00 | 0.00 | 60 | 1015.1 |
| 20260510061021 | 63 | 338 | 5.0 | 8.0 | 0.00 | 0.00 | 0.00 | 60 | 1015.0 |
| 20260510060021 | 63 | 338 | 6.0 | 9.0 | 0.00 | 0.00 | 0.00 | 60 | 1014.9 |
| 20260510055021 | 63 | 338 | 6.0 | 10.0 | 0.00 | 0.00 | 0.00 | 60 | 1014.7 |
| 20260510054021 | 63 | 338 | 6.0 | 9.0 | 0.00 | 0.00 | 0.00 | 60 | 1014.8 |
| 20260510053020 | 64 | 338 | 7.0 | 10.0 | 0.00 | 0.00 | 0.00 | 59 | 1014.7 |
| 20260510052020 | 65 | 315 | 6.0 | 10.0 | 0.00 | 0.00 | 0.00 | 58 | 1014.8 |
| 20260510051020 | 65 | 23 | 6.0 | 10.0 | 0.00 | 0.00 | 0.00 | 58 | 1013.8 |
| 20260510050020 | 65 | 338 | 5.0 | 9.0 | 0.00 | 0.00 | 0.00 | 58 | 1014.5 |
| 20260510045020 | 64 | 338 | 4.0 | 6.0 | 0.00 | 0.00 | 0.00 | 59 | 1014.3 |
| 20260510044020 | 65 | 338 | 5.0 | 7.0 | 0.00 | 0.00 | 0.00 | 59 | 1014.5 |
| 20260510043020 | 65 | 338 | 5.0 | 7.0 | 0.00 | 0.00 | 0.00 | 60 | 1014.4 |
| 20260510042020 | 65 | 338 | 5.0 | 8.0 | 0.00 | 0.00 | 0.00 | 59 | 1014.1 |
| 20260510041020 | 66 | 338 | 4.0 | 9.0 | 0.00 | 0.00 | 0.00 | 59 | 1014.0 |
| 20260510040021 | 66 | 338 | 5.0 | 9.0 | 0.00 | 0.00 | 0.00 | 58 | 1014.1 |
| 20260510035020 | 65 | 0 | 4.0 | 7.0 | 0.00 | 0.00 | 0.00 | 60 | 1013.8 |
| 20260510034020 | 66 | 338 | 4.0 | 5.0 | 0.00 | 0.00 | 0.00 | 60 | 1013.6 |
| 20260510033020 | 67 | 0 | 4.0 | 6.0 | 0.00 | 0.00 | 0.00 | 56 | 1013.7 |
| 20260510032020 | 68 | 338 | 4.0 | 7.0 | 0.00 | 0.00 | 0.00 | 53 | 1013.5 |
| 20260510031020 | 68 | 338 | 3.0 | 8.0 | 0.00 | 0.00 | 0.00 | 53 | 1013.3 |
| 20260510030020 | 68 | 338 | 3.0 | 6.0 | 0.00 | 0.00 | 0.00 | 52 | 1013.0 |
| 20260510025020 | 69 | 338 | 4.0 | 6.0 | 0.00 | 0.00 | 0.00 | 51 | 1012.6 |
| 20260510024020 | 69 | 338 | 4.0 | 6.0 | 0.00 | 0.00 | 0.00 | 51 | 1012.1 |
| 20260510023020 | 70 | 338 | 6.0 | 10.0 | 0.00 | 0.00 | 0.00 | 50 | 1011.4 |
| 20260510022020 | 70 | 0 | 9.0 | 13.0 | 0.00 | 0.00 | 0.00 | 50 | 1010.4 |
| 20260510021020 | 69 | 0 | 6.0 | 10.0 | 0.00 | 0.00 | 0.00 | 52 | 1010.5 |
| 20260510020020 | 70 | 0 | 8.0 | 13.0 | 0.00 | 0.00 | 0.00 | 52 | 1010.8 |
| 20260510015020 | 70 | 338 | 12.0 | 18.0 | 0.00 | 0.00 | 0.00 | 50 | 1011.0 |
| 20260510014020 | 72 | 315 | 11.0 | 18.0 | 0.00 | 0.00 | 0.00 | 49 | 1012.0 |
| 20260510013020 | 73 | 270 | 10.0 | 17.0 | 0.00 | 0.00 | 0.00 | 47 | 1012.1 |
| 20260510012020 | 75 | 248 | 7.0 | 14.0 | 0.00 | 0.00 | 0.00 | 43 | 1012.0 |
| 20260510011020 | 75 | 270 | 5.0 | 8.0 | 0.00 | 0.00 | 0.00 | 40 | 1011.7 |
| 20260510010020 | 76 | 293 | 4.0 | 8.0 | 0.00 | 0.00 | 0.00 | 39 | 1011.1 |
| 20260510005020 | 76 | 338 | 4.0 | 7.0 | 0.00 | 0.00 | 0.00 | 37 | 1009.9 |
| 20260510004020 | 77 | 338 | 6.0 | 11.0 | 0.00 | 0.00 | 0.00 | 36 | 1008.9 |
| 20260510003020 | 77 | 338 | 6.0 | 10.0 | 0.00 | 0.00 | 0.00 | 35 | 1008.6 |
| 20260510002020 | 78 | 338 | 6.0 | 9.0 | 0.00 | 0.00 | 0.00 | 35 | 1008.3 |
| 20260510001020 | 78 | 338 | 6.0 | 9.0 | 0.00 | 0.00 | 0.00 | 33 | 1008.0 |
| 20260510000020 | 79 | 0 | 5.0 | 9.0 | 0.00 | 0.00 | 0.00 | 33 | 1008.2 |
| 20260509235020 | 81 | 338 | 6.0 | 11.0 | 0.00 | 0.00 | 0.00 | 30 | 1008.2 |
| 20260509234022 | 82 | 293 | 2.0 | 4.0 | 0.00 | 0.00 | 0.00 | 28 | 1008.3 |
| 20260509233022 | 84 | 135 | 0.0 | 2.0 | 0.00 | 0.00 | 0.00 | 23 | 1008.6 |
| 20260509232022 | 84 | 135 | 1.0 | 3.0 | 0.00 | 0.00 | 0.00 | 25 | 1008.5 |
| 20260509231022 | 82 | 90 | 2.0 | 2.0 | 0.00 | 0.00 | 0.00 | 27 | 1008.4 |
| 20260509230022 | 82 | 90 | 2.0 | 4.0 | 0.00 | 0.00 | 0.00 | 26 | 1008.6 |
| 20260509225022 | 82 | 113 | 1.0 | 3.0 | 0.00 | 0.00 | 0.00 | 27 | 1008.8 |
| 20260509224022 | 83 | 113 | 1.0 | 3.0 | 0.00 | 0.00 | 0.00 | 25 | 1008.7 |
| 20260509223022 | 83 | 113 | 2.0 | 3.0 | 0.00 | 0.00 | 0.00 | 26 | 1008.7 |
| 20260509222022 | 84 | 135 | 1.0 | 3.0 | 0.00 | 0.00 | 0.00 | 25 | 1008.6 |
| 20260509221022 | 84 | 135 | 3.0 | 5.0 | 0.00 | 0.00 | 0.00 | 24 | 1008.7 |
| 20260509220022 | 84 | 135 | 1.0 | 2.0 | 0.00 | 0.00 | 0.00 | 23 | 1008.6 |
| 20260509215022 | 84 | 158 | 1.0 | 2.0 | 0.00 | 0.00 | 0.00 | 24 | 1008.6 |
| 20260509214022 | 85 | 113 | 2.0 | 4.0 | 0.00 | 0.00 | 0.00 | 23 | 1008.6 |
| 20260509213022 | 86 | 135 | 3.0 | 8.0 | 0.00 | 0.00 | 0.00 | 22 | 1008.8 |
| 20260509212022 | 86 | 135 | 4.0 | 10.0 | 0.00 | 0.00 | 0.00 | 22 | 1008.7 |
| 20260509211022 | 86 | 158 | 4.0 | 8.0 | 0.00 | 0.00 | 0.00 | 24 | 1008.7 |
| 20260509210022 | 87 | 90 | 4.0 | 8.0 | 0.00 | 0.00 | 0.00 | 22 | 1009.0 |
| 20260509205022 | 87 | 203 | 1.0 | 6.0 | 0.00 | 0.00 | 0.00 | 23 | 1009.2 |
| 20260509204022 | 86 | 158 | 3.0 | 5.0 | 0.00 | 0.00 | 0.00 | 22 | 1009.3 |
| 20260509203022 | 86 | 180 | 1.0 | 4.0 | 0.00 | 0.00 | 0.00 | 22 | 1009.4 |
| 20260509202022 | 86 | 203 | 3.0 | 9.0 | 0.00 | 0.00 | 0.00 | 22 | 1009.5 |
| 20260509201022 | 86 | 158 | 5.0 | 9.0 | 0.00 | 0.00 | 0.00 | 21 | 1009.7 |
| 20260509200022 | 86 | 270 | 3.0 | 8.0 | 0.00 | 0.00 | 0.00 | 21 | 1009.8 |
| 20260509195022 | 87 | 158 | 5.0 | 10.0 | 0.00 | 0.00 | 0.00 | 22 | 1009.7 |
| 20260509194022 | 86 | 158 | 4.0 | 11.0 | 0.00 | 0.00 | 0.00 | 22 | 1009.9 |
| 20260509193022 | 85 | 180 | 4.0 | 13.0 | 0.00 | 0.00 | 0.00 | 24 | 1010.1 |
| 20260509192021 | 85 | 180 | 6.0 | 12.0 | 0.00 | 0.00 | 0.00 | 22 | 1010.2 |
| 20260509191022 | 84 | 180 | 4.0 | 9.0 | 0.00 | 0.00 | 0.00 | 25 | 1010.2 |
| 20260509190021 | 84 | 180 | 7.0 | 13.0 | 0.00 | 0.00 | 0.00 | 24 | 1010.3 |
| 20260509185021 | 83 | 203 | 5.0 | 9.0 | 0.00 | 0.00 | 0.00 | 26 | 1010.3 |
| 20260509184021 | 83 | 180 | 8.0 | 14.0 | 0.00 | 0.00 | 0.00 | 25 | 1010.4 |
| 20260509183021 | 85 | 158 | 9.0 | 14.0 | 0.00 | 0.00 | 0.00 | 24 | 1010.5 |
| 20260509182022 | 86 | 180 | 6.0 | 11.0 | 0.00 | 0.00 | 0.00 | 24 | 1010.7 |
| 20260509181021 | 85 | 158 | 6.0 | 12.0 | 0.00 | 0.00 | 0.00 | 27 | 1010.9 |
| 20260509180022 | 84 | 180 | 5.0 | 10.0 | 0.00 | 0.00 | 0.00 | 30 | 1011.0 |